Time,TemperatureF,DewpointF,PressureIn,WindDirection,WindDirectionDegrees,WindSpeedMPH,WindSpeedGustMPH,Humidity,HourlyPrecipIn,Conditions,Clouds,dailyrainin,SolarRadiationWatts/m^2,SoftwareType,DateUTC
2013-08-11 00:08:00,67.1,56.0,29.95,North,360,1.0,4.0,68,0.00,,,0.00,0,weatherlink.com 1.10,2013-08-10 22:08:00,
2013-08-11 00:23:00,67.2,56.0,29.95,WSW,246,1.0,4.0,68,0.00,,,0.00,0,weatherlink.com 1.10,2013-08-10 22:23:00,
2013-08-11 00:38:00,67.3,56.0,29.95,SW,226,0.0,7.0,68,0.00,,,0.00,0,weatherlink.com 1.10,2013-08-10 22:38:00,
2013-08-11 00:53:00,67.2,56.0,29.95,West,274,1.0,4.0,68,0.00,,,0.00,0,weatherlink.com 1.10,2013-08-10 22:53:00,
2013-08-11 01:08:00,66.9,56.0,29.95,North,360,1.0,5.0,68,0.00,,,0.00,0,weatherlink.com 1.10,2013-08-10 23:08:00,
2013-08-11 01:23:00,67.1,56.0,29.95,NE,41,0.0,5.0,68,0.00,,,0.00,0,weatherlink.com 1.10,2013-08-10 23:23:00,
2013-08-11 01:38:00,67.1,56.0,29.95,East,84,1.0,5.0,68,0.00,,,0.00,0,weatherlink.com 1.10,2013-08-10 23:38:00,
2013-08-11 01:53:00,67.1,56.0,29.95,SSW,209,1.0,4.0,68,0.00,,,0.00,0,weatherlink.com 1.10,2013-08-10 23:53:00,
2013-08-11 02:08:00,66.9,56.0,29.95,North,355,0.0,4.0,68,0.00,,,0.00,0,weatherlink.com 1.10,2013-08-11 00:08:00,
2013-08-11 02:23:00,66.7,56.0,29.95,North,360,2.0,4.0,69,0.00,,,0.00,0,weatherlink.com 1.10,2013-08-11 00:23:00,
2013-08-11 02:38:00,66.4,56.0,29.95,West,277,0.0,2.0,69,0.00,,,0.00,0,weatherlink.com 1.10,2013-08-11 00:38:00,
2013-08-11 02:53:00,66.4,56.0,29.95,North,360,0.0,3.0,69,0.00,,,0.00,0,weatherlink.com 1.10,2013-08-11 00:53:00,
2013-08-11 03:08:00,66.2,56.0,29.95,NNW,333,0.0,4.0,69,0.00,,,0.00,0,weatherlink.com 1.10,2013-08-11 01:08:00,
2013-08-11 03:23:00,65.9,55.0,29.95,NW,318,1.0,5.0,69,0.00,,,0.00,0,weatherlink.com 1.10,2013-08-11 01:23:00,
2013-08-11 03:38:00,65.5,55.0,29.95,West,269,1.0,5.0,69,0.00,,,0.00,0,weatherlink.com 1.10,2013-08-11 01:38:00,
2013-08-11 03:53:00,65.6,56.0,29.95,West,269,1.0,3.0,70,0.00,,,0.00,0,weatherlink.com 1.10,2013-08-11 01:53:00,
2013-08-11 04:08:00,65.7,56.0,29.95,WNW,286,0.0,2.0,70,0.00,,,0.00,0,weatherlink.com 1.10,2013-08-11 02:08:00,
2013-08-11 04:23:00,65.4,55.0,29.95,WNW,285,0.0,1.0,70,0.00,,,0.00,0,weatherlink.com 1.10,2013-08-11 02:23:00,
2013-08-11 04:38:00,64.6,55.0,29.95,NW,322,0.0,1.0,71,0.00,,,0.00,0,weatherlink.com 1.10,2013-08-11 02:38:00,
2013-08-11 04:53:00,64.6,54.0,29.95,WSW,249,1.0,3.0,69,0.00,,,0.00,0,weatherlink.com 1.10,2013-08-11 02:53:00,
2013-08-11 05:08:00,65.5,54.0,29.95,NE,41,0.0,3.0,66,0.00,,,0.00,0,weatherlink.com 1.10,2013-08-11 03:08:00,
2013-08-11 05:39:00,65.8,54.0,29.96,North,360,0.0,1.0,66,0.00,,,0.00,0,weatherlink.com 1.10,2013-08-11 03:39:00,
2013-08-11 05:54:00,64.9,54.0,29.96,WSW,238,0.0,0.0,67,0.00,,,0.00,11,weatherlink.com 1.10,2013-08-11 03:54:00,
2013-08-11 06:09:00,64.0,54.0,29.97,WSW,240,0.0,1.0,69,0.00,,,0.00,25,weatherlink.com 1.10,2013-08-11 04:09:00,
2013-08-11 06:24:00,64.1,54.0,29.97,WSW,238,0.0,0.0,70,0.00,,,0.00,25,weatherlink.com 1.10,2013-08-11 04:24:00,
2013-08-11 06:39:00,65.0,52.0,29.97,SSW,197,1.0,3.0,63,0.00,,,0.00,42,weatherlink.com 1.10,2013-08-11 04:39:00,
2013-08-11 06:54:00,66.8,52.0,29.97,NNE,32,0.0,3.0,59,0.00,,,0.00,60,weatherlink.com 1.10,2013-08-11 04:54:00,
2013-08-11 07:09:00,67.8,52.0,29.98,North,349,2.0,3.0,57,0.00,,,0.00,76,weatherlink.com 1.10,2013-08-11 05:09:00,
2013-08-11 07:24:00,69.4,52.0,29.98,NNW,329,1.0,4.0,54,0.00,,,0.00,65,weatherlink.com 1.10,2013-08-11 05:24:00,
2013-08-11 07:39:00,72.9,53.0,29.98,North,360,0.0,3.0,49,0.00,,,0.00,299,weatherlink.com 1.10,2013-08-11 05:39:00,
2013-08-11 08:24:00,78.3,53.0,29.99,North,351,2.0,4.0,41,0.00,,,0.00,434,weatherlink.com 1.10,2013-08-11 06:24:00,
2013-08-11 08:39:00,81.0,52.0,29.99,NNW,346,3.0,7.0,37,0.00,,,0.00,471,weatherlink.com 1.10,2013-08-11 06:39:00,
2013-08-11 08:54:00,79.9,52.0,29.99,NNW,348,1.0,7.0,38,0.00,,,0.00,508,weatherlink.com 1.10,2013-08-11 06:54:00,
2013-08-11 09:09:00,78.8,53.0,29.99,North,360,0.0,3.0,41,0.00,,,0.00,547,weatherlink.com 1.10,2013-08-11 07:09:00,
2013-08-11 09:24:00,80.8,54.0,29.99,NNW,336,0.0,3.0,40,0.00,,,0.00,584,weatherlink.com 1.10,2013-08-11 07:24:00,
2013-08-11 09:39:00,79.7,53.0,29.99,NE,53,3.0,8.0,40,0.00,,,0.00,610,weatherlink.com 1.10,2013-08-11 07:39:00,
2013-08-11 10:25:00,81.6,57.0,30.00,North,360,6.0,6.0,43,0.00,,,0.00,698,weatherlink.com 1.10,2013-08-11 08:25:00,
2013-08-11 10:55:00,84.8,59.0,30.00,NNE,21,0.0,3.0,41,0.00,,,0.00,745,weatherlink.com 1.10,2013-08-11 08:55:00,
2013-08-11 11:10:00,86.2,58.0,29.99,North,5,4.0,5.0,38,0.00,,,0.00,766,weatherlink.com 1.10,2013-08-11 09:10:00,
2013-08-11 11:25:00,85.6,56.0,29.99,NNE,30,6.0,11.0,36,0.00,,,0.00,788,weatherlink.com 1.10,2013-08-11 09:25:00,
2013-08-11 11:40:00,85.4,56.0,29.99,North,355,4.0,7.0,37,0.00,,,0.00,802,weatherlink.com 1.10,2013-08-11 09:40:00,
2013-08-11 11:55:00,85.8,54.0,29.99,North,360,4.0,10.0,34,0.00,,,0.00,807,weatherlink.com 1.10,2013-08-11 09:55:00,
2013-08-11 12:10:00,85.5,52.0,29.99,ESE,119,1.0,7.0,32,0.00,,,0.00,817,weatherlink.com 1.10,2013-08-11 10:10:00,
2013-08-11 12:25:00,87.5,53.0,29.98,East,91,1.0,9.0,31,0.00,,,0.00,821,weatherlink.com 1.10,2013-08-11 10:25:00,
2013-08-11 12:40:00,87.2,52.0,29.98,North,360,3.0,7.0,30,0.00,,,0.00,823,weatherlink.com 1.10,2013-08-11 10:40:00,
2013-08-11 12:55:00,89.7,52.0,29.98,SW,217,2.0,10.0,28,0.00,,,0.00,828,weatherlink.com 1.10,2013-08-11 10:55:00,
2013-08-11 13:10:00,90.2,54.0,29.98,North,360,0.0,11.0,29,0.00,,,0.00,817,weatherlink.com 1.10,2013-08-11 11:10:00,
2013-08-11 13:25:00,88.7,52.0,29.97,North,355,5.0,8.0,28,0.00,,,0.00,816,weatherlink.com 1.10,2013-08-11 11:25:00,
2013-08-11 13:40:00,87.9,54.0,29.97,WSW,248,3.0,8.0,31,0.00,,,0.00,803,weatherlink.com 1.10,2013-08-11 11:40:00,
2013-08-11 13:55:00,89.0,53.0,29.96,WSW,250,0.0,9.0,29,0.00,,,0.00,793,weatherlink.com 1.10,2013-08-11 11:55:00,
2013-08-11 14:10:00,88.1,50.0,29.96,NNW,338,1.0,8.0,27,0.00,,,0.00,770,weatherlink.com 1.10,2013-08-11 12:10:00,
2013-08-11 14:25:00,87.6,53.0,29.96,WNW,285,0.0,11.0,30,0.00,,,0.00,747,weatherlink.com 1.10,2013-08-11 12:25:00,
2013-08-11 14:40:00,87.4,52.0,29.95,WNW,289,1.0,8.0,30,0.00,,,0.00,733,weatherlink.com 1.10,2013-08-11 12:40:00,
2013-08-11 14:55:00,87.4,51.0,29.95,SW,234,1.0,6.0,29,0.00,,,0.00,654,weatherlink.com 1.10,2013-08-11 12:55:00,
2013-08-11 15:10:00,86.5,51.0,29.95,NNW,338,4.0,8.0,29,0.00,,,0.00,679,weatherlink.com 1.10,2013-08-11 13:10:00,
2013-08-11 15:40:00,85.8,49.0,29.94,North,5,1.0,10.0,28,0.00,,,0.00,622,weatherlink.com 1.10,2013-08-11 13:40:00,
2013-08-11 15:55:00,85.5,47.0,29.95,WSW,250,0.0,3.0,26,0.00,,,0.00,587,weatherlink.com 1.10,2013-08-11 13:55:00,
2013-08-11 16:10:00,85.3,47.0,29.94,North,5,0.0,8.0,26,0.00,,,0.00,550,weatherlink.com 1.10,2013-08-11 14:10:00,
2013-08-11 16:25:00,84.9,45.0,29.94,North,355,4.0,6.0,25,0.00,,,0.00,515,weatherlink.com 1.10,2013-08-11 14:25:00,
2013-08-11 16:40:00,84.6,45.0,29.94,North,5,0.0,8.0,25,0.00,,,0.00,44,weatherlink.com 1.10,2013-08-11 14:40:00,
2013-08-11 16:55:00,84.4,45.0,29.95,North,355,3.0,9.0,25,0.00,,,0.00,42,weatherlink.com 1.10,2013-08-11 14:55:00,
2013-08-11 17:10:00,83.8,48.0,29.95,North,355,0.0,5.0,29,0.00,,,0.00,54,weatherlink.com 1.10,2013-08-11 15:10:00,
2013-08-11 17:25:00,83.3,51.0,29.94,WSW,246,1.0,11.0,33,0.00,,,0.00,54,weatherlink.com 1.10,2013-08-11 15:25:00,
2013-08-11 17:40:00,82.9,50.0,29.94,SE,146,0.0,5.0,32,0.00,,,0.00,65,weatherlink.com 1.10,2013-08-11 15:40:00,
2013-08-11 18:40:00,80.9,49.0,29.94,North,360,0.0,4.0,33,0.00,,,0.00,25,weatherlink.com 1.10,2013-08-11 16:40:00,
2013-08-11 18:55:00,80.2,51.0,29.94,NW,321,0.0,2.0,36,0.00,,,0.00,19,weatherlink.com 1.10,2013-08-11 16:55:00,
2013-08-11 19:10:00,79.2,51.0,29.94,WNW,300,0.0,2.0,38,0.00,,,0.00,18,weatherlink.com 1.10,2013-08-11 17:10:00,
2013-08-11 19:25:00,77.9,50.0,29.94,WNW,290,0.0,1.0,38,0.00,,,0.00,14,weatherlink.com 1.10,2013-08-11 17:25:00,
2013-08-11 19:40:00,77.0,51.0,29.94,SW,236,0.0,2.0,40,0.00,,,0.00,9,weatherlink.com 1.10,2013-08-11 17:40:00,
2013-08-11 19:55:00,76.3,50.0,29.95,WSW,238,0.0,1.0,40,0.00,,,0.00,0,weatherlink.com 1.10,2013-08-11 17:55:00,
2013-08-11 20:10:00,75.4,49.0,29.95,WSW,239,0.0,1.0,40,0.00,,,0.00,0,weatherlink.com 1.10,2013-08-11 18:10:00,
2013-08-11 20:25:00,74.6,50.0,29.95,WSW,238,0.0,1.0,42,0.00,,,0.00,0,weatherlink.com 1.10,2013-08-11 18:25:00,
2013-08-11 20:40:00,74.1,50.0,29.96,WSW,238,0.0,0.0,43,0.00,,,0.00,0,weatherlink.com 1.10,2013-08-11 18:40:00,
2013-08-11 20:56:00,73.8,50.0,29.96,WSW,238,0.0,1.0,44,0.00,,,0.00,0,weatherlink.com 1.10,2013-08-11 18:56:00,
2013-08-11 21:11:00,73.9,51.0,29.97,SW,231,0.0,2.0,44,0.00,,,0.00,0,weatherlink.com 1.10,2013-08-11 19:11:00,
2013-08-11 21:26:00,74.0,51.0,29.98,North,360,0.0,1.0,45,0.00,,,0.00,0,weatherlink.com 1.10,2013-08-11 19:26:00,
2013-08-11 21:41:00,74.0,51.0,29.98,North,360,0.0,2.0,45,0.00,,,0.00,0,weatherlink.com 1.10,2013-08-11 19:41:00,
2013-08-11 21:56:00,74.2,52.0,29.98,West,267,0.0,1.0,46,0.00,,,0.00,0,weatherlink.com 1.10,2013-08-11 19:56:00,
2013-08-11 22:11:00,74.1,52.0,29.98,North,360,0.0,1.0,47,0.00,,,0.00,0,weatherlink.com 1.10,2013-08-11 20:11:00,
2013-08-11 22:56:00,74.0,53.0,29.98,NNW,338,0.0,1.0,48,0.00,,,0.00,0,weatherlink.com 1.10,2013-08-11 20:56:00,
2013-08-11 23:26:00,73.9,53.0,29.99,SW,226,0.0,1.0,49,0.00,,,0.00,0,weatherlink.com 1.10,2013-08-11 21:26:00,
2013-08-11 23:41:00,73.7,54.0,29.99,ENE,78,0.0,1.0,50,0.00,,,0.00,0,weatherlink.com 1.10,2013-08-11 21:41:00,